When you browse on this site, cookies collect data to enhance your experience and personalize the content and advertising you see.
Visit our Privacy Policy to learn more. By continuing to use the site, you agree to this use of cookies and data.
  • En España
  • Lista de países
  • Para 7 días
  • Temperatura del agua
  • El tiempo en el mapa
  • Informadores
  • user-avatar
    Iniciar sesión

    Tiempo cada hora Evora

    Hoy, 25 Mayo, Lunes

    Tiempo Temperatura Precipitaciones Viento Presión Humedad
    00:00 +20°C° 0 mm 1 mps 743 mmHg 79%
    01:00 +19°C° 0 mm 1 mps 743 mmHg 79%
    02:00 +19°C° 0 mm 1 mps 742 mmHg 79%
    03:00 +19°C° 0 mm 1 mps 742 mmHg 79%
    04:00 +18°C° 0 mm 1 mps 742 mmHg 79%
    05:00 +18°C° 0 mm 1 mps 742 mmHg 78%
    06:00 +21°C° 0 mm 1 mps 743 mmHg 70%
    07:00 +23°C° 0 mm 2 mps 743 mmHg 61%
    08:00 +25°C° 0 mm 2 mps 743 mmHg 52%
    09:00 +27°C° 0 mm 2 mps 743 mmHg 47%
    10:00 +29°C° 0 mm 2 mps 743 mmHg 41%
    11:00 +31°C° 0 mm 3 mps 742 mmHg 36%
    12:00 +33°C° 0 mm 3 mps 742 mmHg 34%
    13:00 +33°C° 0 mm 3 mps 742 mmHg 33%
    14:00 +34°C° 0 mm 2 mps 742 mmHg 31%
    15:00 +33°C° 0 mm 3 mps 741 mmHg 35%
    16:00 +33°C° 0 mm 3 mps 741 mmHg 39%
    17:00 +32°C° 0 mm 4 mps 741 mmHg 43%
    18:00 +28°C° 0 mm 3 mps 741 mmHg 52%
    19:00 +26°C° 0 mm 3 mps 741 mmHg 60%
    20:00 +24°C° 0 mm 3 mps 741 mmHg 69%
    21:00 +23°C° 0 mm 2 mps 741 mmHg 71%
    22:00 +22°C° 0 mm 1 mps 741 mmHg 73%
    23:00 +21°C° 0 mm 1 mps 741 mmHg 75%

    Mañana, 26 Mayo, Martes

    Tiempo Temperatura Precipitaciones Viento Presión Humedad
    00:00 +21°C° 0 mm 1 mps 741 mmHg 76%
    01:00 +21°C° 0 mm 1 mps 740 mmHg 78%
    02:00 +20°C° 0 mm 1 mps 740 mmHg 79%
    03:00 +18°C° 0 mm 0 mps 740 mmHg 80%
    04:00 +18°C° 0 mm 0 mps 740 mmHg 80%
    05:00 +18°C° 0 mm 0 mps 740 mmHg 80%
    06:00 +22°C° 0 mm 1 mps 741 mmHg 72%
    07:00 +25°C° 0 mm 1 mps 741 mmHg 64%
    08:00 +27°C° 0 mm 1 mps 742 mmHg 56%
    09:00 +29°C° 0 mm 1 mps 742 mmHg 50%
    10:00 +31°C° 0 mm 1 mps 741 mmHg 44%
    11:00 +33°C° 0 mm 1 mps 741 mmHg 38%
    12:00 +33°C° 0 mm 1 mps 741 mmHg 35%
    13:00 +34°C° 0 mm 1 mps 741 mmHg 32%
    14:00 +35°C° 0 mm 1 mps 740 mmHg 29%
    15:00 +34°C° 0 mm 2 mps 740 mmHg 35%
    16:00 +31°C° 0 mm 3 mps 740 mmHg 41%
    17:00 +30°C° 0 mm 4 mps 740 mmHg 47%
    18:00 +28°C° 0 mm 3 mps 740 mmHg 53%
    19:00 +26°C° 0 mm 3 mps 740 mmHg 59%
    20:00 +24°C° 0 mm 3 mps 741 mmHg 65%
    21:00 +22°C° 0 mm 3 mps 740 mmHg 67%
    22:00 +21°C° 0 mm 2 mps 740 mmHg 69%
    23:00 +20°C° 0 mm 2 mps 740 mmHg 70%

    Pasado mañana, 27 Mayo, Miércoles

    Tiempo Temperatura Precipitaciones Viento Presión Humedad
    00:00 +20°C° 0 mm 2 mps 740 mmHg 73%
    01:00 +19°C° 0 mm 2 mps 739 mmHg 76%
    02:00 +19°C° 0 mm 1 mps 739 mmHg 79%
    03:00 +19°C° 0 mm 1 mps 739 mmHg 78%
    04:00 +20°C° 0 mm 1 mps 739 mmHg 78%
    05:00 +20°C° 0 mm 1 mps 739 mmHg 77%
    06:00 +21°C° 0 mm 2 mps 740 mmHg 66%
    07:00 +25°C° 0 mm 2 mps 740 mmHg 54%
    08:00 +27°C° 0 mm 3 mps 741 mmHg 43%
    09:00 +29°C° 0 mm 3 mps 741 mmHg 39%
    10:00 +31°C° 0 mm 3 mps 741 mmHg 34%
    11:00 +33°C° 0 mm 3 mps 740 mmHg 30%
    12:00 +34°C° 0 mm 3 mps 740 mmHg 29%
    13:00 +34°C° 0 mm 2 mps 740 mmHg 28%
    14:00 +35°C° 0 mm 2 mps 740 mmHg 27%
    15:00 +34°C° 0 mm 2 mps 740 mmHg 31%
    16:00 +32°C° 0 mm 2 mps 739 mmHg 35%
    17:00 +31°C° 0 mm 2 mps 739 mmHg 39%
    18:00 +28°C° 0 mm 3 mps 739 mmHg 47%
    19:00 +26°C° 0 mm 3 mps 740 mmHg 54%
    20:00 +24°C° 0 mm 3 mps 740 mmHg 61%
    21:00 +22°C° 0 mm 3 mps 740 mmHg 65%
    22:00 +21°C° 0 mm 3 mps 740 mmHg 70%
    23:00 +20°C° 0 mm 2 mps 740 mmHg 74%

    28 Mayo, Jueves

    Tiempo Temperatura Precipitaciones Viento Presión Humedad
    00:00 +19°C° 0 mm 2 mps 740 mmHg 76%
    01:00 +19°C° 0 mm 2 mps 739 mmHg 79%
    02:00 +18°C° 0 mm 2 mps 739 mmHg 81%
    03:00 +18°C° 0 mm 2 mps 739 mmHg 80%
    04:00 +19°C° 0 mm 1 mps 739 mmHg 79%
    05:00 +17°C° 0 mm 0 mps 739 mmHg 78%
    06:00 +22°C° 0 mm 1 mps 740 mmHg 68%
    07:00 +24°C° 0 mm 2 mps 740 mmHg 57%
    08:00 +26°C° 0 mm 2 mps 740 mmHg 46%
    09:00 +28°C° 0 mm 2 mps 740 mmHg 41%
    10:00 +30°C° 0 mm 2 mps 740 mmHg 36%
    11:00 +32°C° 0 mm 2 mps 740 mmHg 31%
    12:00 +33°C° 0 mm 3 mps 740 mmHg 30%
    13:00 +34°C° 0 mm 3 mps 739 mmHg 28%
    14:00 +35°C° 0 mm 3 mps 739 mmHg 26%
    15:00 +34°C° 0 mm 3 mps 739 mmHg 29%
    16:00 +33°C° 0 mm 3 mps 738 mmHg 33%
    17:00 +32°C° 0 mm 4 mps 738 mmHg 36%
    18:00 +28°C° 0 mm 4 mps 738 mmHg 46%
    19:00 +25°C° 0 mm 4 mps 739 mmHg 57%
    20:00 +22°C° 0 mm 4 mps 739 mmHg 67%
    21:00 +21°C° 0 mm 3 mps 739 mmHg 68%
    22:00 +21°C° 0 mm 3 mps 739 mmHg 69%
    23:00 +20°C° 0 mm 2 mps 739 mmHg 70%

    29 Mayo, Viernes

    Tiempo Temperatura Precipitaciones Viento Presión Humedad
    00:00 +20°C° 0 mm 2 mps 738 mmHg 71%
    01:00 +19°C° 0 mm 2 mps 738 mmHg 71%
    02:00 +20°C° 0 mm 1 mps 738 mmHg 72%
    03:00 +20°C° 0 mm 1 mps 738 mmHg 74%
    04:00 +20°C° 0 mm 1 mps 738 mmHg 76%
    05:00 +19°C° 0 mm 1 mps 738 mmHg 79%
    06:00 +22°C° 0 mm 1 mps 738 mmHg 68%
    07:00 +25°C° 0 mm 1 mps 738 mmHg 58%
    08:00 +27°C° 0 mm 1 mps 738 mmHg 48%
    09:00 +29°C° 0 mm 1 mps 738 mmHg 41%
    10:00 +31°C° 0 mm 2 mps 738 mmHg 34%
    11:00 +34°C° 0 mm 2 mps 738 mmHg 27%
    12:00 +35°C° 0 mm 2 mps 738 mmHg 26%
    13:00 +35°C° 0 mm 3 mps 737 mmHg 24%
    14:00 +36°C° 0 mm 3 mps 737 mmHg 23%
    15:00 +35°C° 0 mm 3 mps 737 mmHg 27%
    16:00 +34°C° 0 mm 4 mps 737 mmHg 31%
    17:00 +33°C° 0 mm 4 mps 736 mmHg 35%
    18:00 +30°C° 0 mm 4 mps 737 mmHg 41%
    19:00 +28°C° 0 mm 4 mps 737 mmHg 46%
    20:00 +26°C° 0 mm 4 mps 737 mmHg 51%
    21:00 +25°C° 0 mm 4 mps 737 mmHg 54%
    22:00 +24°C° 0 mm 3 mps 737 mmHg 57%
    23:00 +22°C° 0 mm 3 mps 737 mmHg 59%

    30 Mayo, Sábado

    Tiempo Temperatura Precipitaciones Viento Presión Humedad
    00:00 +21°C° 0 mm 2 mps 736 mmHg 60%
    01:00 +21°C° 0 mm 2 mps 736 mmHg 60%
    02:00 +20°C° 0 mm 2 mps 736 mmHg 61%
    03:00 +20°C° 0 mm 2 mps 736 mmHg 62%
    04:00 +21°C° 0 mm 1 mps 736 mmHg 62%
    05:00 +22°C° 0 mm 1 mps 736 mmHg 63%
    06:00 +24°C° 0 mm 1 mps 736 mmHg 57%
    07:00 +27°C° 0 mm 1 mps 737 mmHg 50%
    08:00 +29°C° 0 mm 1 mps 737 mmHg 43%
    09:00 +31°C° 0 mm 1 mps 737 mmHg 39%
    10:00 +32°C° 0 mm 1 mps 737 mmHg 35%
    11:00 +35°C° 0 mm 2 mps 737 mmHg 31%
    12:00 +35°C° 0 mm 2 mps 736 mmHg 30%
    13:00 +35°C° 0 mm 3 mps 736 mmHg 30%
    14:00 +35°C° 0 mm 4 mps 736 mmHg 29%
    15:00 +34°C° 0 mm 4 mps 736 mmHg 33%
    16:00 +33°C° 0 mm 5 mps 735 mmHg 36%
    17:00 +32°C° 0 mm 5 mps 735 mmHg 40%
    18:00 +29°C° 0 mm 4 mps 735 mmHg 45%
    19:00 +27°C° 0 mm 4 mps 736 mmHg 51%
    20:00 +24°C° 0 mm 3 mps 736 mmHg 57%
    21:00 +24°C° 0 mm 3 mps 736 mmHg 60%
    22:00 +23°C° 0 mm 2 mps 736 mmHg 63%
    23:00 +21°C° 0 mm 2 mps 736 mmHg 66%
    Mostrar más